Regional Weather Roundup
Issued by NWS Albany, NY

Home | Current Version | Previous Version | Text Only | Print | Product List | Glossary On
Versions: 1 2 3 4 5 6 7 8 9 10 11 12 13 14 15 16 17 18 19 20 21 22 23 24 25 26 27 28 29 30 31 32 33 34 35 36 37 38 39 40 41 42 43 44 45 46 47 48 49
000
ASUS41 KALY 040510
RWRALY

NEW YORK STATE HOURLY WEATHER ROUNDUP
NATIONAL WEATHER SERVICE ALBANY NY
100 AM EDT FRI SEP 04 2015

NOTE: "FAIR" INDICATES FEW OR NO CLOUDS BELOW 12,000 FEET WITH NO
SIGNIFICANT WEATHER AND/OR NO OBSTRUCTIONS TO VISIBILITY.

NYZ032-033-038>043-046>054-057>066-NYZ062>081-040600-
EAST


CITY           SKY/WX    TMP DP  RH WIND       PRES   REMARKS
ALBANY         PTCLDY    72  58  61 N8        29.97R
GLENS FALLS    CLEAR     67  54  63 NE3       29.99R
POUGHKEEPSIE   CLEAR     71  66  84 CALM      29.93R
NEWBURGH       PTCLDY    73  68  83 VRB6      29.96R
MONTGOMERY     PTCLDY    71  67  87 NE3       29.95R
WHITE PLAINS   PTCLDY    72  64  76 N5        29.92R
ISLIP          PTCLDY    73  69  87 NE3       29.89S FOG
NEW YORK CITY  MOCLDY    81  66  60 N3        29.89R
CENTRAL PARK   PTCLDY    81  65  58 CALM      29.93R
$$

NYZ005>009-017-018-044>046-055-056-040600-
CENTRAL


CITY           SKY/WX    TMP DP  RH WIND       PRES   REMARKS
FULTON         CLEAR     69  63  81 CALM      29.99R
SYRACUSE       PTCLDY    67  67 100 N3        29.98R FOG
ROME           MOCLDY    70  64  81 CALM      30.00R
ELMIRA         PTCLDY    65  65 100 CALM      30.00R FOG
BINGHAMTON     CLEAR     68  67  96 NE7       30.02R FOG
MONTICELLO     CLEAR     66  66 100 CALM      30.01R
$$

NYZ026>034-041>043-040600-
NORTH


CITY           SKY/WX    TMP DP  RH WIND       PRES   REMARKS
WATERTOWN      CLEAR     63  62  97 E5        30.00R FOG
FORT DRUM      NOT AVBL
MASSENA        CLEAR     63  55  75 E8        30.04R
SARANAC LAKE   PTCLDY    48  48 100 N3        30.06R
PLATTSBURGH    CLEAR     62  51  67 NW8       30.04R
$$

NYZ001>004-010>016-019>021-040600-
WEST


CITY           SKY/WX    TMP DP  RH WIND       PRES   REMARKS
NIAGARA FALLS  MOCLDY    69  67  93 CALM      29.98R FOG
BUFFALO        MOCLDY    72  68  87 CALM      29.99R
DUNKIRK        PTCLDY    69  67  93 CALM      29.98R FOG
JAMESTOWN      CLOUDY    68  66  94 CALM      30.03R VSB<1/4
WELLSVILLE     FOG       68  66  93 CALM      30.07R VSB 3/4
ROCHESTER      PTCLDY    69  66  90 CALM      30.00R
PENN YAN       PTCLDY    64  63  96 CALM      30.01R FOG
$$

             KEY
       WCI = WIND CHILL INDEX
       VSB = VISIBILITY
       HX  = HEAT INDEX
$$


USA.gov is the U.S. government's official web portal to all federal, state and local government web resources and services.